Weather Roundup
Issued by NWS Chicago, IL

Home | Current Version | Previous Version | Graphics & Text | Print | Product List | Glossary On
Versions: 1 2 3 4 5 6 7 8 9 10 11 12 13 14 15 16 17 18 19 20 21 22 23 24 25 26 27 28 29 30 31 32 33 34 35 36 37 38 39 40 41 42 43 44 45 46 47 48 49 50
000
NZUS59 KLOT 250009
HRRLOT

CHICAGO AREA WEATHER ROUNDUP
NATIONAL WEATHER SERVICE CHICAGO/ROMEOVILLE IL
700 PM CDT SAT JUN 24 2017

NOTE: "FAIR" INDICATES FEW OR NO CLOUDS BELOW 12,000 FEET WITH NO
SIGNIFICANT WEATHER AND/OR OBSTRUCTIONS TO VISIBILITY.

* THESE STATIONS ARE NOT UNDER NWS QUALITY CONTROL. THEY ALSO MAY NOT
  REPORT WEATHER SUCH AS PRECIPITATION OR FOG.

ILZ005-006-012>014-019>023-250100-
NORTHEAST ILLINOIS

CITY           SKY/WX    TMP DP  RH WIND       PRES   REMARKS
OHARE          MOSUNNY   71  40  32 NW22      30.00R
6HR MIN TEMP:  71; 6HR MAX TEMP:  75;

MIDWAY         MOSUNNY   72  42  34 W16G25    30.01R
6HR MIN TEMP:  71; 6HR MAX TEMP:  75;

AURORA         SUNNY     71  41  33 NW17      30.03S
6HR MIN TEMP:  70; 6HR MAX TEMP:  74;

LANSING*       SUNNY     71  39  31 W13G23    30.02R
JOLIET*        SUNNY     73  42  33 NW7G17    30.03S
WAUKEGAN       SUNNY     69  42  37 NW8G17    29.99R
6HR MIN TEMP:  69; 6HR MAX TEMP:  72;

DUPAGE AIRPORT SUNNY     70  42  36 NW17G24   30.02R
6HR MIN TEMP:  69; 6HR MAX TEMP:  73;

WHEELING       SUNNY     70  42  36 NW16G24   30.02R
6HR MIN TEMP:  70; 6HR MAX TEMP:  74;

MORRIS*        SUNNY     72  42  34 NW16G24   30.03S
LEWIS AIRPORT* SUNNY     71  38  29 NW13      30.03R
NORTHERLY ISL    N/A     70  38  31 NW13        N/A
$$

WIZ051-052-058>065-066-070>072-250100-
SOUTHEAST WISCONSIN

CITY           SKY/WX    TMP DP  RH WIND       PRES   REMARKS
MILWAUKEE      MOSUNNY   71  42  35 W17G23    29.98R
6HR MIN TEMP:  69; 6HR MAX TEMP:  74;

KENOSHA*       SUNNY     68  43  40 W14G23    29.99R
RACINE*        SUNNY     70  41  34 W10G20    30.00R
WAUKESHA       MOSUNNY   64  39  39 W17G23    30.00R
WEST BEND      SUNNY     66  39  37 W16G25    29.97R
$$

INZ001>003-010>013-019-020-250100-
NORTHWEST INDIANA

CITY           SKY/WX    TMP DP  RH WIND       PRES   REMARKS
GARY*          MOSUNNY   73  36  25 W21       30.02R
MICHIGAN CITY* NOT AVBL
RENSSELAER*    NOT AVBL
VALPARAISO     SUNNY     73  44  35 W13G24    30.01R
$$

LMZ740>746-250100-
SOUTHERN LAKE MICHIGAN

STATION/POSITION TIME  SKY/WX   TEMP WIND        PRES    VSBY
                                AIR  DIR/SP/G
                 (UTC)          (F)  (DEG/KT/KT) (MB)    (MI)
HARRISON CRIB    2340            71  300/ 26/ 29   N/A
BURNHAM HARBOR   0000            70                N/A
CALUMET HARBOR   2348            71  270/ 11/ 18 1015.8R
BURNS HARBOR     2340            69  280/ 15/ 18 1016.3R
MICHIGAN CITY    2340            69  260/ 19/ 22   N/A
$$

ABBREVIATIONS USED IN REMARKS
   TC - TEMPERATURE IN CELSIUS
  WCI - WIND CHILL INDEX
   HX - HEAT INDEX
  VSB - VISIBILITY
$$



USA.gov is the U.S. government's official web portal to all federal, state and local government web resources and services.